FW6014 Weather Reports


Display with metric or nautical units.
time (UTC)temp
F
wind
direction
speed
MPH
gust
MPH
rain 1hr
in
rain 24hr
in
rain mn
in
humidity
%
barometer
mb
20260507020902 51 277 0.0 2.0 0.02 0.77 0.76 95 1006.1
20260507020402 51 277 0.0 2.0 0.01 0.76 0.75 95 1005.8
20260507020127 51 277 0.0 1.0 0.01 0.76 0.75 95 1005.7
20260507015902 52 277 0.0 1.0 0.01 0.76 0.75 95 1005.7
20260507015402 52 277 0.0 1.0 0.01 0.76 0.75 95 1005.7
20260507014901 52 277 0.0 1.0 0.01 0.76 0.75 95 1005.6
20260507014521 52 277 0.0 1.0 0.01 0.76 0.75 95 1005.6
20260507014401 52 277 0.0 0.0 0.01 0.76 0.75 95 1005.7
20260507013901 52 277 0.0 0.0 0.00 0.75 0.74 95 1005.7
20260507013403 53 277 0.0 0.0 0.00 0.75 0.74 95 1005.8
20260507013111 52 277 0.0 0.0 0.00 0.75 0.74 95 1005.7
20260507012902 53 277 0.0 0.0 0.00 0.75 0.74 96 1005.6
20260507012402 53 277 0.0 0.0 0.00 0.75 0.74 96 1005.7
20260507011902 53 277 0.0 0.0 0.00 0.75 0.74 95 1005.7
20260507011514 53 277 0.0 0.0 0.00 0.75 0.74 96 1005.7
20260507011403 53 277 0.0 0.0 0.00 0.75 0.74 96 1005.7
20260507010900 53 277 0.0 0.0 0.00 0.75 0.74 95 1005.7
20260507010402 53 277 0.0 0.0 0.02 0.75 0.74 95 1005.6
20260507005904 53 277 0.0 0.0 0.05 0.75 0.74 95 1005.6
20260507005402 53 277 0.0 0.0 0.09 0.75 0.74 95 1005.7
20260507004901 53 277 0.0 0.0 0.15 0.75 0.74 95 1005.7
20260507004653 53 277 0.0 0.0 0.17 0.75 0.74 95 1005.6
20260507004359 53 277 0.0 1.0 0.17 0.75 0.74 95 1005.7
20260507003858 54 277 0.0 1.0 0.18 0.75 0.74 95 1005.7
20260507003358 54 277 0.0 1.0 0.18 0.75 0.74 95 1005.7
20260507003039 53 277 0.0 1.0 0.18 0.75 0.74 95 1005.5
20260507002856 54 277 0.0 1.0 0.19 0.75 0.74 95 1005.6
20260507002357 54 277 0.0 1.0 0.19 0.75 0.74 95 1005.6
20260507001856 54 277 1.0 2.0 0.19 0.75 0.74 95 1005.4
20260507001630 54 277 0.0 2.0 0.19 0.75 0.74 95 1005.4
20260507001356 54 277 1.0 2.0 0.19 0.75 0.74 94 1005.3
20260507000855 54 277 1.0 2.0 0.19 0.75 0.73 94 1005.3
20260507000357 55 277 1.0 3.0 0.18 0.73 0.72 93 1005.2
20260507000033 55 277 0.0 3.0 0.18 0.71 0.70 93 1005.1
20260506235850 56 277 1.0 3.0 0.18 0.70 0.69 93 1005.1
20260506235347 57 277 1.0 3.0 0.14 0.66 0.64 93 1005.1
20260506234846 58 277 1.0 3.0 0.08 0.59 0.58 94 1004.9
20260506234627 57 277 1.0 3.0 0.07 0.57 0.56 94 1004.7
20260506234346 58 277 1.0 3.0 0.08 0.58 0.57 94 1004.5
20260506233846 58 277 1.0 5.0 0.07 0.57 0.56 94 1004.2
20260506233347 58 277 2.0 6.0 0.07 0.57 0.56 94 1004.1
20260506233013 58 277 1.0 8.0 0.06 0.57 0.55 94 1004.0
20260506232844 58 277 3.0 9.0 0.06 0.56 0.55 94 1004.1
20260506232343 58 277 3.0 10.0 0.06 0.56 0.55 94 1004.1
20260506231845 58 277 3.0 10.0 0.06 0.56 0.55 93 1004.1
20260506231609 58 277 2.0 10.0 0.06 0.57 0.55 93 1004.0
20260506231344 58 277 2.0 7.0 0.06 0.56 0.55 94 1004.3
20260506230844 58 277 2.0 7.0 0.06 0.56 0.55 94 1004.3
20260506230012 58 277 1.0 6.0 0.03 0.55 0.52 94 1004.3
20260506225844 59 277 2.0 6.0 0.02 0.53 0.51 94 1004.4
20260506225344 59 277 2.0 5.0 0.02 0.53 0.51 94 1004.5
20260506224844 59 277 2.0 6.0 0.01 0.52 0.50 93 1004.6
20260506224604 58 277 2.0 6.0 0.01 0.53 0.50 93 1004.4
20260506224344 59 277 2.0 6.0 0.00 0.51 0.49 93 1004.6
20260506223845 59 277 1.0 6.0 0.00 0.51 0.49 93 1004.6
20260506223345 59 277 1.0 5.0 0.00 0.51 0.49 93 1004.8
20260506223002 58 277 1.0 5.0 0.00 0.60 0.49 93 1004.6
20260506222844 59 277 1.0 5.0 0.00 0.52 0.49 93 1004.9
20260506222344 59 277 1.0 6.0 0.00 0.52 0.49 93 1004.9
20260506221603 59 277 2.0 6.0 0.01 0.60 0.49 93 1004.9
20260506221343 59 277 1.0 4.0 0.01 0.52 0.49 93 1005.0
20260506220844 59 277 0.0 3.0 0.01 0.52 0.49 93 1005.1
20260506220003 59 277 0.0 3.0 0.01 0.60 0.49 93 1005.2
20260506215844 59 277 1.0 5.0 0.01 0.60 0.49 93 1005.3
20260506214839 59 277 1.0 4.0 0.02 0.60 0.49 93 1005.4
20260506214603 59 277 0.0 5.0 0.02 0.60 0.49 93 1005.2
20260506214337 59 277 1.0 5.0 0.03 0.60 0.49 93 1005.4
20260506213836 59 277 2.0 8.0 0.03 0.60 0.49 93 1005.6
20260506213335 59 277 2.0 9.0 0.03 0.60 0.49 93 1005.7
20260506213003 59 277 3.0 9.0 0.03 0.60 0.49 93 1005.4
20260506212835 59 277 2.0 10.0 0.03 0.60 0.49 93 1005.7
20260506212332 59 277 2.0 10.0 0.03 0.60 0.49 93 1005.7
20260506211601 59 277 2.0 12.0 0.02 0.59 0.48 93 1005.5
20260506211331 59 277 3.0 12.0 0.03 0.59 0.48 93 1005.6
20260506210829 59 277 2.0 7.0 0.03 0.59 0.48 93 1005.7
20260506210329 59 277 2.0 8.0 0.03 0.59 0.48 93 1005.7
20260506205329 59 277 1.0 7.0 0.04 0.59 0.48 93 1005.7
20260506204829 59 277 1.0 4.0 0.03 0.58 0.47 94 1005.7
20260506204603 59 277 0.0 4.0 0.03 0.57 0.47 94 1005.5
20260506204331 59 277 1.0 4.0 0.03 0.57 0.46 93 1005.7
20260506203828 59 277 1.0 3.0 0.03 0.57 0.46 93 1005.7
20260506203329 59 277 1.0 6.0 0.04 0.57 0.46 93 1005.7
20260506203008 59 277 0.0 6.0 0.04 0.56 0.46 93 1005.4
20260506202830 59 277 1.0 6.0 0.04 0.57 0.46 93 1005.7
20260506202329 59 277 1.0 9.0 0.04 0.57 0.46 93 1005.7
20260506201829 59 277 2.0 12.0 0.05 0.57 0.46 93 1005.7
20260506201602 59 277 0.0 12.0 0.05 0.56 0.46 93 1005.4
20260506201330 59 277 2.0 12.0 0.05 0.56 0.45 93 1005.7
20260506200829 59 277 2.0 7.0 0.06 0.56 0.45 93 1005.8
20260506200003 59 277 0.0 11.0 0.06 0.56 0.45 93 1005.5
20260506195830 59 277 3.0 11.0 0.07 0.56 0.45 93 1005.8
20260506195330 59 277 4.0 13.0 0.06 0.55 0.44 93 1005.9
20260506194623 58 277 3.0 13.0 0.07 0.55 0.44 93 1005.6
20260506194329 59 277 2.0 12.0 0.06 0.54 0.43 93 1005.9
20260506193330 59 277 3.0 9.0 0.06 0.50 0.42 93 1006.0
20260506193001 58 277 2.0 7.0 0.07 0.53 0.42 93 1005.8
20260506192829 59 277 2.0 6.0 0.08 0.50 0.42 93 1006.0
20260506192330 58 277 1.0 5.0 0.12 0.50 0.42 93 1006.1
20260506191551 58 277 0.0 5.0 0.15 0.51 0.40 94 1006.0
20260506190830 58 277 0.0 3.0 0.16 0.50 0.39 94 1006.3
20260506190329 58 277 0.0 1.0 0.21 0.50 0.39 94 1006.4
20260506190004 58 277 0.0 0.0 0.23 0.50 0.39 95 1006.1
20260506185829 58 277 0.0 0.0 0.23 0.27 0.38 95 1006.5
20260506185329 58 277 0.0 3.0 0.30 0.27 0.38 95 1006.5
20260506184831 58 277 0.0 3.0 0.33 0.27 0.37 94 1006.6
20260506184550 58 277 0.0 1.0 0.34 0.48 0.37 94 1006.4
20260506183829 58 277 0.0 2.0 0.34 0.27 0.36 94 1006.8
20260506183002 58 277 0.0 2.0 0.34 0.46 0.35 94 1007.0
20260506182829 58 277 0.0 2.0 0.33 0.27 0.33 94 1007.3
20260506182329 59 277 0.0 1.0 0.29 0.27 0.29 94 1007.0
20260506181830 59 277 0.0 1.0 0.27 0.27 0.27 94 1007.3
20260506181602 58 277 0.0 1.0 0.25 0.37 0.27 94 1007.1
20260506181330 59 277 0.0 1.0 0.24 0.27 0.25 93 1007.2
20260506180831 59 277 0.0 1.0 0.22 0.27 0.22 93 1007.2
20260506180006 59 277 0.0 0.0 0.15 0.27 0.16 92 1007.0
20260506175829 59 277 0.0 0.0 0.14 0.12 0.14 92 1007.3
20260506175329 60 277 0.0 1.0 0.06 0.12 0.07 91 1007.2
20260506174604 60 277 0.0 4.0 0.04 0.15 0.04 89 1006.7
20260506174330 60 277 1.0 4.0 0.02 0.12 0.02 89 1006.8
20260506173829 60 277 1.0 3.0 0.02 0.12 0.01 87 1006.8
20260506173330 60 277 1.0 4.0 0.01 0.12 0.01 86 1006.9
20260506173002 60 277 0.0 5.0 0.01 0.12 0.01 86 1006.6
20260506172826 61 277 2.0 5.0 0.01 0.12 0.01 85 1006.9
20260506171544 60 277 0.0 4.0 0.01 0.12 0.01 85 1006.9
20260506170817 60 277 2.0 7.0 0.01 0.12 0.01 85 1007.3
20260506170317 60 277 2.0 7.0 0.01 0.12 0.01 85 1007.3
20260506170005 60 277 2.0 7.0 0.01 0.12 0.01 86 1007.1
20260506165817 60 277 1.0 5.0 0.01 0.11 0.01 86 1007.4
20260506165318 60 277 1.0 4.0 0.01 0.11 0.01 86 1007.7
20260506164817 60 277 1.0 5.0 0.00 0.11 0.00 85 1007.8
20260506164602 60 277 0.0 5.0 0.00 0.11 0.00 85 1007.6
20260506164318 60 277 1.0 5.0 0.00 0.11 0.00 86 1007.9
20260506163817 60 277 0.0 3.0 0.00 0.11 0.00 86 1008.1
20260506163317 60 277 0.0 3.0 0.00 0.11 0.00 86 1008.2
20260506163003 60 277 0.0 2.0 0.00 0.11 0.00 86 1007.9
20260506162817 60 277 0.0 2.0 0.00 0.11 0.00 86 1008.2
20260506161607 60 277 0.0 2.0 0.00 0.11 0.00 84 1008.3
20260506161314 61 277 0.0 4.0 0.00 0.11 0.00 83 1008.8
20260506160815 61 277 0.0 4.0 0.00 0.11 0.00 83 1008.8
20260506160315 61 277 0.0 4.0 0.00 0.11 0.00 82 1008.8
20260506160002 60 277 0.0 4.0 0.00 0.11 0.00 83 1008.4
20260506155815 61 277 1.0 4.0 0.00 0.11 0.00 83 1008.6
20260506155314 61 277 1.0 4.0 0.00 0.11 0.00 82 1008.8
20260506154817 61 277 1.0 4.0 0.00 0.11 0.00 81 1009.1
20260506154602 60 277 0.0 4.0 0.00 0.11 0.00 80 1008.7
20260506154315 61 277 1.0 3.0 0.00 0.11 0.00 80 1009.1
20260506153315 61 277 1.0 3.0 0.00 0.11 0.00 80 1009.2
20260506153002 60 277 1.0 3.0 0.00 0.11 0.00 79 1008.9
20260506152815 61 277 1.0 3.0 0.00 0.11 0.00 78 1009.2
20260506152316 61 277 1.0 3.0 0.00 0.11 0.00 79 1009.1
20260506151815 61 277 1.0 3.0 0.00 0.11 0.00 79 1009.1
20260506151610 60 277 0.0 4.0 0.00 0.11 0.00 79 1008.9
20260506151315 61 277 1.0 4.0 0.00 0.11 0.00 79 1009.1
20260506150314 61 277 1.0 3.0 0.00 0.11 0.00 79 1009.0
20260506150002 60 277 0.0 2.0 0.00 0.11 0.00 79 1008.8
20260506145814 61 277 0.0 2.0 0.00 0.11 0.00 79 1009.1
20260506145314 61 277 0.0 2.0 0.00 0.11 0.00 79 1009.2
20260506144624 60 277 0.0 4.0 0.00 0.11 0.00 79 1008.8
20260506144313 61 277 1.0 4.0 0.00 0.11 0.00 79 1009.1
20260506143813 60 277 1.0 3.0 0.00 0.11 0.00 79 1009.2
20260506143314 60 277 1.0 3.0 0.00 0.11 0.00 82 1009.0
20260506143152 60 277 0.0 3.0 0.00 0.11 0.00 81 1008.7
20260506142814 60 277 1.0 3.0 0.00 0.11 0.00 81 1009.0
20260506142314 60 277 1.0 6.0 0.00 0.11 0.00 81 1009.0
20260506141811 60 277 0.0 6.0 0.00 0.11 0.00 80 1008.9
20260506141551 60 277 0.0 6.0 0.00 0.11 0.00 80 1008.6
20260506141310 60 277 0.0 2.0 0.00 0.11 0.00 81 1008.8
20260506140147 60 277 0.0 0.0 0.00 0.11 0.00 84 1008.8
20260506135806 60 277 0.0 0.0 0.00 0.11 0.00 85 1009.1
20260506134538 59 277 0.0 0.0 0.00 0.11 0.00 83 1009.0
20260506134305 59 277 0.0 0.0 0.00 0.11 0.00 85 1009.2
20260506133803 59 277 0.0 0.0 0.00 0.11 0.00 84 1009.2
20260506133302 58 277 0.0 1.0 0.00 0.11 0.00 84 1009.2
20260506133131 58 277 0.0 1.0 0.00 0.11 0.00 83 1009.0
20260506132800 59 277 0.0 1.0 0.00 0.11 0.00 83 1009.2
20260506132301 59 277 0.0 1.0 0.00 0.11 0.00 85 1009.6
20260506131800 58 277 0.0 1.0 0.00 0.11 0.00 85 1009.6
20260506131531 58 277 0.0 1.0 0.00 0.11 0.00 85 1009.3
20260506131301 58 277 0.0 1.0 0.00 0.11 0.00 87 1009.6
20260506130802 58 277 0.0 0.0 0.00 0.11 0.00 86 1009.4
20260506130143 58 277 0.0 0.0 0.00 0.11 0.00 87 1009.3
20260506125805 58 277 0.0 0.0 0.00 0.11 0.00 87 1009.6
20260506125305 58 277 0.0 0.0 0.00 0.11 0.00 88 1009.7
20260506124800 57 277 0.0 0.0 0.00 0.11 0.00 88 1009.7
20260506124529 57 277 0.0 0.0 0.00 0.11 0.00 88 1009.5
20260506124302 57 277 0.0 0.0 0.00 0.11 0.00 88 1009.8
20260506123802 57 277 0.0 0.0 0.00 0.11 0.00 89 1009.8
20260506123301 57 277 0.0 0.0 0.00 0.11 0.00 89 1009.8
20260506123130 57 277 0.0 0.0 0.00 0.11 0.00 89 1009.6
20260506122802 57 277 0.0 0.0 0.00 0.11 0.00 90 1009.9
20260506122300 57 277 0.0 0.0 0.00 0.11 0.00 90 1009.8
20260506121800 57 277 0.0 0.0 0.00 0.11 0.00 90 1010.0
20260506121543 56 277 0.0 0.0 0.00 0.11 0.00 90 1009.8
20260506121521 56 277 0.0 0.0 0.00 0.11 0.00 90 1009.7
20260506120801 57 277 0.0 0.0 0.00 0.11 0.00 89 1009.9
20260506120132 56 277 0.0 0.0 0.00 0.11 0.00 90 1009.8
20260506115801 56 277 0.0 0.0 0.00 0.11 0.00 90 1010.1
20260506114801 56 277 0.0 0.0 0.00 0.11 0.00 90 1010.3
20260506114539 55 277 0.0 0.0 0.00 0.11 0.00 90 1010.0
20260506114303 56 277 0.0 0.0 0.00 0.11 0.00 91 1010.2
20260506113301 56 277 0.0 0.0 0.00 0.11 0.00 92 1010.2
20260506113130 55 277 0.0 0.0 0.00 0.11 0.00 92 1009.9
20260506112802 56 277 0.0 0.0 0.00 0.11 0.00 91 1010.1
20260506112301 56 277 0.0 0.0 0.00 0.11 0.00 92 1010.0
20260506111802 55 277 0.0 0.0 0.00 0.11 0.00 92 1009.9
20260506111534 55 277 0.0 0.0 0.00 0.11 0.00 92 1009.7
20260506111303 55 277 0.0 0.0 0.00 0.11 0.00 92 1010.0
20260506110039 54 277 0.0 0.0 0.00 0.11 0.00 93 1009.8
20260506105301 54 277 0.0 0.0 0.00 0.11 0.00 93 1009.9
20260506104801 53 277 0.0 0.0 0.00 0.11 0.00 94 1009.9
20260506104545 53 277 0.0 0.0 0.00 0.11 0.00 94 1009.8
20260506104523 53 277 0.0 0.0 0.00 0.11 0.00 94 1009.7
20260506103802 53 277 0.0 0.0 0.00 0.11 0.00 94 1009.9
20260506103128 52 277 0.0 0.0 0.00 0.11 0.00 94 1009.7
20260506102802 53 277 0.0 0.0 0.00 0.11 0.00 93 1010.0
20260506102305 53 277 0.0 0.0 0.00 0.11 0.00 93 1009.9
20260506101759 52 277 0.0 0.0 0.00 0.11 0.00 94 1009.9
20260506101539 52 277 0.0 0.0 0.00 0.11 0.00 93 1009.8
20260506101256 52 277 0.0 0.0 0.00 0.11 0.00 94 1009.9
20260506100756 52 277 0.0 0.0 0.00 0.11 0.00 93 1009.9
20260506100255 52 277 0.0 0.0 0.00 0.11 0.00 93 1009.8
20260506100118 52 277 0.0 0.0 0.00 0.11 0.00 93 1009.6
20260506095756 52 277 0.0 0.0 0.00 0.11 0.00 93 1009.8
20260506095252 52 277 0.0 0.0 0.00 0.11 0.00 93 1009.8
20260506094514 52 277 0.0 0.0 0.00 0.11 0.00 92 1009.5
20260506094249 52 277 0.0 0.0 0.00 0.11 0.00 92 1009.7
20260506093746 53 277 0.0 0.0 0.00 0.11 0.00 93 1009.7
20260506093245 52 277 0.0 0.0 0.00 0.11 0.00 92 1009.8
20260506093106 52 277 0.0 0.0 0.00 0.11 0.00 92 1009.7
20260506092739 53 277 0.0 0.0 0.00 0.11 0.00 92 1009.9
20260506091737 53 277 0.0 0.0 0.00 0.11 0.00 91 1009.7
20260506091504 53 277 0.0 0.0 0.00 0.11 0.00 91 1009.5
20260506091234 53 277 0.0 0.0 0.00 0.11 0.00 91 1009.7
20260506090733 53 277 0.0 0.0 0.00 0.11 0.00 91 1009.7
20260506085730 54 277 0.0 0.0 0.00 0.11 0.00 90 1009.6
20260506085230 54 277 0.0 0.0 0.00 0.11 0.00 90 1009.4
20260506084729 54 277 0.0 0.0 0.00 0.11 0.00 89 1009.4
20260506084510 54 277 0.0 0.0 0.00 0.11 0.00 89 1009.3
20260506084231 54 277 0.0 0.0 0.00 0.11 0.00 89 1009.4
20260506083729 55 277 0.0 0.0 0.00 0.11 0.00 89 1009.7
20260506083103 55 277 0.0 0.0 0.00 0.11 0.00 89 1009.2
20260506082729 55 277 0.0 0.0 0.00 0.11 0.00 89 1009.4
20260506082229 55 277 0.0 0.0 0.00 0.11 0.00 89 1009.6
20260506081502 55 277 0.0 0.0 0.00 0.11 0.00 89 1009.4
20260506081230 56 277 0.0 0.0 0.00 0.11 0.00 89 1009.4
20260506080230 56 277 0.0 0.0 0.00 0.11 0.00 89 1009.6
20260506073231 56 277 0.0 0.0 0.00 0.11 0.00 90 1009.7
20260506073052 56 277 0.0 0.0 0.00 0.11 0.11 90 1009.2
20260506072731 56 277 0.0 0.0 0.00 0.11 0.00 90 1009.4
20260506072233 56 277 0.0 0.0 0.00 0.11 0.00 90 1009.7
20260506071638 56 277 0.0 0.0 0.00 0.11 0.11 90 1009.4
20260506070730 56 277 0.0 1.0 0.00 0.11 0.00 91 1009.7
20260506070229 56 277 0.0 1.0 0.00 0.11 0.00 91 1009.4
20260506062227 57 277 0.0 3.0 0.00 0.11 0.00 89 1008.9
20260506061724 58 277 1.0 3.0 0.00 0.11 0.00 87 1008.7
20260506061615 58 277 0.0 2.0 0.00 0.11 0.11 85 1008.5
20260506061226 58 277 1.0 3.0 0.00 0.11 0.00 86 1008.7
20260506060725 57 277 1.0 3.0 0.00 0.11 0.00 89 1008.8
20260506060222 56 277 0.0 0.0 0.00 0.11 0.00 92 1009.0
20260506051215 56 277 0.0 0.0 0.00 0.11 0.00 91 1008.6
20260506050715 57 277 0.0 0.0 0.00 0.11 0.00 90 1008.8
20260506050215 57 277 0.0 0.0 0.00 0.11 0.00 90 1008.6
20260506050133 56 277 0.0 0.0 0.00 0.11 0.11 90 1008.4
20260506044523 58 277 0.0 0.0 0.00 0.11 0.11 87 1008.5
20260506044215 58 277 0.0 0.0 0.00 0.11 0.00 86 1008.6
20260506043715 59 277 0.0 3.0 0.00 0.11 0.00 84 1008.5
20260506043215 59 277 1.0 5.0 0.00 0.11 0.00 83 1008.5
20260506043114 59 277 0.0 5.0 0.00 0.11 0.11 83 1008.4
20260506042718 58 277 1.0 5.0 0.00 0.11 0.00 85 1008.5
20260506042214 56 277 0.0 3.0 0.00 0.11 0.00 91 1008.7
20260506041716 56 277 0.0 0.0 0.00 0.11 0.00 92 1008.6
20260506041524 55 277 0.0 0.0 0.00 0.11 0.11 92 1008.4
20260506041215 56 277 0.0 0.0 0.00 0.11 0.00 92 1008.6
20260506040714 56 277 0.0 0.0 0.00 0.11 0.00 92 1008.6
20260506040215 56 277 0.0 1.0 0.00 0.11 0.00 92 1008.5
20260506035212 56 277 0.0 0.0 0.00 0.11 0.11 92 1008.9
20260506034713 56 277 0.0 1.0 0.00 0.11 0.11 92 1009.0
20260506034501 56 277 0.0 1.0 0.00 0.11 0.11 92 1008.7
20260506034213 56 277 0.0 1.0 0.00 0.11 0.11 91 1008.8
20260506033713 56 277 0.0 1.0 0.00 0.11 0.11 91 1008.6
20260506033113 56 277 0.0 1.0 0.00 0.11 0.11 91 1008.4
20260506032710 57 277 0.0 3.0 0.00 0.11 0.11 90 1008.6
20260506032209 57 277 1.0 3.0 0.00 0.11 0.11 90 1008.5
20260506031710 56 277 0.0 3.0 0.01 0.11 0.11 90 1008.3
20260506031653 56 277 0.0 3.0 0.01 0.11 0.11 91 1008.2
20260506031208 56 277 0.0 1.0 0.01 0.11 0.11 91 1008.3
20260506030207 57 277 0.0 2.0 0.01 0.11 0.11 89 1008.4
20260506030043 56 277 0.0 2.0 0.01 0.11 0.11 90 1008.2
20260506025704 57 277 0.0 5.0 0.01 0.10 0.11 89 1008.4
20260506025202 57 277 0.0 5.0 0.01 0.10 0.11 88 1008.4
20260506024634 57 277 0.0 1.0 0.01 0.11 0.11 88 1008.4
20260506024202 58 277 0.0 6.0 0.01 0.10 0.11 87 1008.5
20260506023701 58 277 0.0 6.0 0.01 0.10 0.11 88 1008.5
20260506023201 58 277 0.0 0.0 0.01 0.10 0.11 90 1008.6
20260506023023 58 277 0.0 0.0 0.01 0.11 0.11 90 1008.4
20260506022702 58 277 0.0 2.0 0.01 0.10 0.11 89 1008.6
20260506022202 59 277 1.0 2.0 0.01 0.10 0.11 88 1008.6
20260506021701 59 277 1.0 3.0 0.00 0.10 0.10 86 1008.5
20260506021616 59 277 1.0 3.0 0.00 0.10 0.10 86 1008.4